Location: Newark
(45.9456°N, 15.4064°E)
Time: 03:03:38
(UTC+00:00)

A-11 Canister half - All Passes

Search period start: 23 January 2020 00:00
Search period end: 02 February 2020 00:00
Orbit: 1517 x 1683 km, 47.2° (Epoch: 22 January)

Date Brightness Start Highest point End Pass type
(mag) Time Alt. Az. Time Alt. Az. Time Alt. Az.
23 Jan - 01:36:04 10° W 01:45:25 84° N 01:54:45 10° E visible
23 Jan - 03:41:14 10° WNW 03:50:31 83° SSW 03:59:53 10° ESE visible
23 Jan - 05:46:19 10° WNW 05:54:43 40° SW 06:03:15 10° SSE visible
23 Jan - 21:07:09 10° S 21:14:09 24° SE 21:21:00 10° E night (unlit)
23 Jan - 23:08:29 10° SW 23:17:43 63° SSE 23:26:48 10° ENE visible
24 Jan - 01:13:08 10° W 01:22:30 84° N 01:31:49 10° E visible
24 Jan - 03:18:19 10° WNW 03:27:37 85° SSW 03:36:59 10° ESE visible
24 Jan - 05:23:23 10° WNW 05:31:52 42° SW 05:40:30 10° SSE visible
24 Jan - 07:32:27 10° WSW 07:34:47 11° WSW 07:37:09 10° SW daylight
24 Jan - 20:44:36 10° S 20:51:20 22° SE 20:57:57 10° E night (unlit)
24 Jan - 22:45:38 10° SW 22:54:51 61° SSE 23:03:53 10° ENE night (unlit)
25 Jan - 00:50:12 10° W 00:59:34 85° N 01:08:53 10° E visible
25 Jan - 02:55:24 10° WNW 03:04:42 87° SSW 03:14:03 10° ESE visible
25 Jan - 05:00:27 10° WNW 05:09:02 45° SW 05:17:45 10° SSE visible
25 Jan - 07:08:40 10° WSW 07:12:01 12° WSW 07:15:24 10° SW daylight
25 Jan - 20:22:06 10° S 20:28:32 21° SE 20:34:52 10° E night (unlit)
25 Jan - 22:22:48 10° SW 22:31:58 59° SSE 22:40:59 10° ENE night (unlit)
26 Jan - 00:27:15 10° W 00:36:39 86° N 00:45:59 10° E visible
26 Jan - 02:32:29 10° WNW 02:41:48 88° SSW 02:51:08 10° ESE visible
26 Jan - 04:37:31 10° WNW 04:46:11 47° SW 04:54:58 10° SSE visible
26 Jan - 06:45:10 10° W 06:49:15 14° SW 06:53:22 10° SSW daylight
26 Jan - 19:59:39 10° SSE 20:05:44 19° SE 20:11:45 10° E night (unlit)
26 Jan - 21:59:57 10° SW 22:09:06 56° SSE 22:18:04 10° ENE night (unlit)
27 Jan - 00:04:19 10° W 00:13:44 87° N 00:23:03 10° E visible
27 Jan - 02:09:34 10° WNW 02:18:54 90° SSW 02:28:14 10° ESE visible
27 Jan - 04:14:35 10° WNW 04:23:21 49° SW 04:32:11 10° SE visible
27 Jan - 06:21:48 10° W 06:26:28 15° SW 06:31:11 10° SSW daylight
27 Jan - 19:37:13 10° SSE 19:42:57 18° SE 19:48:35 10° E visible
27 Jan - 21:37:08 10° SW 21:46:15 54° SE 21:55:10 10° ENE night (unlit)
27 Jan - 23:41:23 10° WSW 23:50:50 88° N 00:00:08 10° E visible
28 Jan - 01:46:38 10° WNW 01:55:59 89° N 02:05:19 10° ESE visible
28 Jan - 03:51:40 10° WNW 04:00:29 52° SW 04:09:24 10° SE visible
28 Jan - 05:58:32 10° W 06:03:41 16° SW 06:08:53 10° SSW daylight
28 Jan - 19:14:50 10° SSE 19:20:09 16° SE 19:25:23 10° E visible
28 Jan - 21:14:19 10° SW 21:23:23 51° SE 21:32:15 10° ENE night (unlit)
28 Jan - 23:18:27 10° WSW 23:27:55 89° NNW 23:37:13 10° ENE night (unlit)
29 Jan - 01:23:43 10° W 01:33:05 88° NNE 01:42:23 10° ESE visible
29 Jan - 03:28:45 10° WNW 03:37:39 54° SW 03:46:36 10° SE visible
29 Jan - 05:35:19 10° W 05:40:54 18° SW 05:46:32 10° SSW visible
29 Jan - 18:52:33 10° SSE 18:57:22 15° SE 19:02:07 10° E visible
29 Jan - 20:51:31 10° SW 21:00:32 49° SE 21:09:20 10° ENE visible
29 Jan - 22:55:31 10° WSW 23:05:00 89° SSE 23:14:18 10° ENE night (unlit)
30 Jan - 01:00:47 10° W 01:10:10 87° N 01:19:28 10° E visible
30 Jan - 03:05:49 10° WNW 03:14:47 57° SSW 03:23:46 10° SE visible
30 Jan - 05:12:10 10° W 05:18:07 19° SW 05:24:07 10° S visible
30 Jan - 18:30:21 10° SSE 18:34:35 14° SE 18:38:46 10° E visible
30 Jan - 20:28:42 10° SSW 20:37:41 47° SE 20:46:25 10° ENE visible
30 Jan - 22:32:34 10° WSW 22:42:05 88° SSE 22:51:24 10° ENE night (unlit)
31 Jan - 00:37:50 10° W 00:47:15 86° N 00:56:33 10° E visible
31 Jan - 02:42:54 10° WNW 02:51:56 59° SSW 03:00:58 10° SE visible
31 Jan - 04:49:02 10° W 04:55:19 21° SW 05:01:39 10° S visible
31 Jan - 18:08:18 10° SE 18:11:48 12° ESE 18:15:15 10° E visible
31 Jan - 20:05:55 10° SSW 20:14:49 45° SE 20:23:29 10° ENE visible
31 Jan - 22:09:38 10° WSW 22:19:10 86° SSE 22:28:30 10° ENE night (unlit)
01 Feb - 00:14:54 10° W 00:24:20 85° N 00:33:38 10° E visible
01 Feb - 02:19:58 10° WNW 02:29:04 62° SSW 02:38:08 10° SE visible
01 Feb - 04:25:57 10° W 04:32:32 22° SW 04:39:10 10° S visible
01 Feb - 17:46:30 10° SE 17:49:01 11° ESE 17:51:30 10° ESE visible
01 Feb - 19:43:09 10° SSW 19:51:58 42° SE 20:00:34 10° ENE visible
01 Feb - 21:46:42 10° WSW 21:56:16 84° SSE 22:05:35 10° ENE visible
